Time,TemperatureF,DewpointF,PressureIn,WindDirection,WindDirectionDegrees,WindSpeedMPH,WindSpeedGustMPH,Humidity,HourlyPrecipIn,Conditions,Clouds,dailyrainin,SoftwareType,DateUTC
2013-10-11 00:00:00,66.9,64.2,29.85,SSE,155,2.0,9.0,91,0.00,RA,SKC,0.00,WeatherDisplay:10.37,2013-10-10 22:00:00,
2013-10-11 00:10:00,67.0,64.3,29.85,SSE,158,6.0,12.0,91,0.00,RA,SKC,0.00,WeatherDisplay:10.37,2013-10-10 22:10:00,
2013-10-11 00:20:00,66.9,63.9,29.85,SSE,163,1.0,12.0,90,0.00,RA,SKC,0.00,WeatherDisplay:10.37,2013-10-10 22:20:00,
2013-10-11 00:30:00,67.2,63.2,29.85,SSE,167,1.0,9.0,87,0.00,CLR,SKC,0.00,WeatherDisplay:10.37,2013-10-10 22:30:00,
2013-10-11 00:40:00,67.2,63.6,29.85,South,175,2.0,9.0,88,0.00,CLR,SKC,0.00,WeatherDisplay:10.37,2013-10-10 22:40:00,
2013-10-11 00:50:00,67.3,63.6,29.85,South,175,3.0,8.0,88,0.00,CLR,SKC,0.00,WeatherDisplay:10.37,2013-10-10 22:50:00,
2013-10-11 01:00:00,67.2,63.8,29.85,South,171,3.0,9.0,89,0.00,CLR,SKC,0.00,WeatherDisplay:10.37,2013-10-10 23:00:00,
2013-10-11 01:10:00,67.0,63.9,29.85,SSE,153,1.0,7.0,90,0.00,CLR,SKC,0.00,WeatherDisplay:10.37,2013-10-10 23:10:00,
2013-10-11 01:20:00,66.9,63.6,29.85,SSE,149,3.0,8.0,89,0.00,CLR,SKC,0.00,WeatherDisplay:10.37,2013-10-10 23:20:00,
2013-10-11 01:30:00,66.9,63.6,29.86,SSE,163,1.0,9.0,89,0.00,CLR,SKC,0.00,WeatherDisplay:10.37,2013-10-10 23:30:00,
2013-10-11 01:40:00,67.2,63.8,29.86,SSE,162,2.0,7.0,89,0.00,CLR,SKC,0.00,WeatherDisplay:10.37,2013-10-10 23:40:00,
2013-10-11 01:50:00,67.5,63.8,29.86,SSE,162,5.0,9.0,88,0.00,CLR,SKC,0.00,WeatherDisplay:10.37,2013-10-10 23:50:00,
2013-10-11 02:00:00,67.6,63.6,29.86,SSE,165,1.0,12.0,87,0.00,CLR,SKC,0.00,WeatherDisplay:10.37,2013-10-11 00:00:00,
2013-10-11 02:10:00,67.5,63.8,29.86,SSE,160,1.0,12.0,88,0.00,CLR,SKC,0.00,WeatherDisplay:10.37,2013-10-11 00:10:00,
2013-10-11 02:20:00,67.0,63.3,29.86,SSE,153,2.0,10.0,88,0.00,CLR,SKC,0.00,WeatherDisplay:10.37,2013-10-11 00:20:00,
2013-10-11 02:30:00,67.4,63.7,29.86,South,173,6.0,10.0,88,0.00,CLR,SKC,0.00,WeatherDisplay:10.37,2013-10-11 00:30:00,
2013-10-11 02:40:00,67.3,63.6,29.86,SSE,163,5.0,9.0,88,0.00,CLR,SKC,0.00,WeatherDisplay:10.37,2013-10-11 00:40:00,
2013-10-11 02:50:00,67.1,63.7,29.86,South,175,3.0,7.0,89,0.00,CLR,SKC,0.00,WeatherDisplay:10.37,2013-10-11 00:50:00,
2013-10-11 03:00:00,67.3,63.3,29.86,SSE,167,3.0,10.0,87,0.00,CLR,SKC,0.00,WeatherDisplay:10.37,2013-10-11 01:00:00,
2013-10-11 03:10:00,67.4,63.4,29.86,SSE,154,2.0,7.0,87,0.00,CLR,SKC,0.00,WeatherDisplay:10.37,2013-10-11 01:10:00,
2013-10-11 03:20:00,67.2,63.5,29.86,South,170,1.0,6.0,88,0.00,CLR,SKC,0.00,WeatherDisplay:10.37,2013-10-11 01:20:00,
2013-10-11 03:30:00,67.2,63.8,29.86,South,170,0.0,8.0,89,0.00,CLR,SKC,0.00,WeatherDisplay:10.37,2013-10-11 01:30:00,
2013-10-11 03:40:00,67.2,63.8,29.85,SSE,153,0.0,6.0,89,0.00,CLR,SKC,0.00,WeatherDisplay:10.37,2013-10-11 01:40:00,
2013-10-11 03:50:00,67.0,63.7,29.85,SSE,163,1.0,5.0,89,0.00,CLR,SKC,0.00,WeatherDisplay:10.37,2013-10-11 01:50:00,
2013-10-11 04:00:00,67.0,63.6,29.85,SSE,167,0.0,5.0,89,0.00,CLR,SKC,0.00,WeatherDisplay:10.37,2013-10-11 02:00:00,
2013-10-11 04:10:00,66.8,63.5,29.84,SSE,162,0.0,4.0,89,0.00,CLR,SKC,0.00,WeatherDisplay:10.37,2013-10-11 02:10:00,
2013-10-11 04:20:00,66.8,63.5,29.84,SSE,159,3.0,8.0,89,0.00,CLR,SKC,0.00,WeatherDisplay:10.37,2013-10-11 02:20:00,
2013-10-11 04:30:00,66.9,63.2,29.84,SSE,154,1.0,5.0,88,0.00,CLR,SKC,0.00,WeatherDisplay:10.37,2013-10-11 02:30:00,
2013-10-11 04:40:00,66.7,63.4,29.84,South,171,2.0,7.0,89,0.00,CLR,SKC,0.00,WeatherDisplay:10.37,2013-10-11 02:40:00,
2013-10-11 04:50:00,66.8,63.1,29.85,SSE,159,1.0,9.0,88,0.00,CLR,SKC,0.00,WeatherDisplay:10.37,2013-10-11 02:50:00,
2013-10-11 05:00:00,66.8,63.1,29.85,SSE,161,1.0,7.0,88,0.00,CLR,SKC,0.00,WeatherDisplay:10.37,2013-10-11 03:00:00,
2013-10-11 05:10:00,67.1,63.5,29.86,SSE,165,6.0,10.0,88,0.00,CLR,SKC,0.00,WeatherDisplay:10.37,2013-10-11 03:10:00,
2013-10-11 05:20:00,67.2,63.5,29.86,South,170,1.0,10.0,88,0.00,CLR,SKC,0.00,WeatherDisplay:10.37,2013-10-11 03:20:00,
2013-10-11 05:30:00,67.1,63.7,29.85,SSE,168,2.0,7.0,89,0.00,CLR,SKC,0.00,WeatherDisplay:10.37,2013-10-11 03:30:00,
2013-10-11 05:40:00,67.1,63.7,29.85,SSE,156,2.0,9.0,89,0.00,CLR,SKC,0.00,WeatherDisplay:10.37,2013-10-11 03:40:00,
2013-10-11 05:50:00,67.4,64.0,29.85,SSE,149,3.0,12.0,89,0.00,CLR,SKC,0.00,WeatherDisplay:10.37,2013-10-11 03:50:00,
2013-10-11 06:00:00,67.4,64.0,29.85,SSE,163,6.0,12.0,89,0.00,CLR,SKC,0.00,WeatherDisplay:10.37,2013-10-11 04:00:00,
2013-10-11 06:10:00,67.3,64.3,29.85,SSE,147,5.0,10.0,90,0.00,CLR,SKC,0.00,WeatherDisplay:10.37,2013-10-11 04:10:00,
2013-10-11 06:20:00,67.3,64.3,29.85,SSE,168,3.0,8.0,90,0.00,CLR,SKC,0.00,WeatherDisplay:10.37,2013-10-11 04:20:00,
2013-10-11 06:30:00,67.4,64.4,29.85,SSE,167,3.0,12.0,90,0.00,CLR,SKC,0.00,WeatherDisplay:10.37,2013-10-11 04:30:00,
2013-10-11 06:40:00,67.4,64.4,29.85,SSE,162,5.0,9.0,90,0.00,CLR,SKC,0.00,WeatherDisplay:10.37,2013-10-11 04:40:00,
2013-10-11 06:50:00,67.5,64.8,29.85,SSE,166,5.0,12.0,91,0.00,CLR,SKC,0.00,WeatherDisplay:10.37,2013-10-11 04:50:00,
2013-10-11 07:00:00,67.3,64.3,29.85,SSE,157,3.0,10.0,90,0.00,CLR,SKC,0.00,WeatherDisplay:10.37,2013-10-11 05:00:00,
2013-10-11 07:10:00,67.3,64.3,29.85,SSE,157,3.0,10.0,90,0.00,CLR,SKC,0.00,WeatherDisplay:10.37,2013-10-11 05:10:00,
2013-10-11 07:20:00,67.3,63.9,29.86,SSE,162,3.0,10.0,89,0.00,CLR,SKC,0.00,WeatherDisplay:10.37,2013-10-11 05:20:00,
2013-10-11 07:30:00,67.4,64.0,29.86,SSE,163,5.0,12.0,89,0.00,CLR,SKC,0.00,WeatherDisplay:10.37,2013-10-11 05:30:00,
2013-10-11 07:40:00,67.7,64.4,29.86,SSE,151,2.0,12.0,89,0.00,CLR,SKC,0.00,WeatherDisplay:10.37,2013-10-11 05:40:00,
2013-10-11 07:50:00,67.8,64.4,29.86,SSE,160,6.0,12.0,89,0.00,CLR,SKC,0.00,WeatherDisplay:10.37,2013-10-11 05:50:00,
2013-10-11 08:00:00,68.0,64.6,29.87,SSE,160,7.0,13.0,89,0.00,CLR,SKC,0.00,WeatherDisplay:10.37,2013-10-11 06:00:00,
2013-10-11 08:10:00,68.0,64.6,29.87,SSE,154,7.0,12.0,89,0.00,CLR,SKC,0.00,WeatherDisplay:10.37,2013-10-11 06:10:00,
2013-10-11 08:20:00,68.1,64.7,29.88,SSE,158,5.0,14.0,89,0.00,CLR,SKC,0.00,WeatherDisplay:10.37,2013-10-11 06:20:00,
2013-10-11 08:30:00,68.2,64.9,29.88,SSE,165,7.0,14.0,89,0.00,CLR,SKC,0.00,WeatherDisplay:10.37,2013-10-11 06:30:00,
2013-10-11 08:40:00,68.3,64.9,29.88,SSE,161,5.0,13.0,89,0.00,CLR,SKC,0.00,WeatherDisplay:10.37,2013-10-11 06:40:00,
2013-10-11 08:50:00,68.3,64.6,29.87,SSE,153,5.0,13.0,88,0.00,CLR,SKC,0.00,WeatherDisplay:10.37,2013-10-11 06:50:00,
2013-10-11 09:00:00,68.5,64.8,29.87,SSE,162,6.0,13.0,88,0.00,CLR,SKC,0.00,WeatherDisplay:10.37,2013-10-11 07:00:00,
2013-10-11 09:10:00,68.5,64.8,29.88,SSE,158,6.0,14.0,88,0.00,CLR,SKC,0.00,WeatherDisplay:10.37,2013-10-11 07:10:00,
2013-10-11 09:20:00,68.7,64.6,29.88,SSE,156,5.0,14.0,87,0.00,CLR,SKC,0.00,WeatherDisplay:10.37,2013-10-11 07:20:00,
2013-10-11 09:30:00,68.9,64.5,29.88,SSE,165,1.0,13.0,86,0.00,CLR,SKC,0.00,WeatherDisplay:10.37,2013-10-11 07:30:00,
2013-10-11 09:40:00,69.5,64.7,29.89,South,176,3.0,12.0,85,0.00,CLR,SKC,0.00,WeatherDisplay:10.37,2013-10-11 07:40:00,
2013-10-11 09:50:00,69.4,64.7,29.89,SSE,159,6.0,12.0,85,0.00,CLR,SKC,0.00,WeatherDisplay:10.37,2013-10-11 07:50:00,
2013-10-11 10:00:00,69.3,64.6,29.90,South,176,2.0,12.0,85,0.00,CLR,SKC,0.00,WeatherDisplay:10.37,2013-10-11 08:00:00,
2013-10-11 10:10:00,69.6,65.5,29.90,SSE,154,3.0,12.0,87,0.00,CLR,SKC,0.00,WeatherDisplay:10.37,2013-10-11 08:10:00,
2013-10-11 10:20:00,69.6,65.2,29.91,SSE,168,5.0,10.0,86,0.00,CLR,SKC,0.00,WeatherDisplay:10.37,2013-10-11 08:20:00,
2013-10-11 10:30:00,69.7,66.0,29.90,SSE,166,6.0,13.0,88,0.00,CLR,SKC,0.00,WeatherDisplay:10.37,2013-10-11 08:30:00,
2013-10-11 10:40:00,69.9,65.9,29.90,SSE,167,1.0,16.0,87,0.00,CLR,SKC,0.00,WeatherDisplay:10.37,2013-10-11 08:40:00,
2013-10-11 10:50:00,70.0,66.3,29.90,South,179,3.0,12.0,88,0.00,CLR,SKC,0.00,WeatherDisplay:10.37,2013-10-11 08:50:00,
2013-10-11 11:00:00,69.8,66.8,29.91,South,179,5.0,20.0,90,0.00,CLR,SKC,0.00,WeatherDisplay:10.37,2013-10-11 09:00:00,
2013-10-11 11:10:00,69.9,66.8,29.91,SSE,162,8.0,16.0,90,0.00,CLR,SKC,0.00,WeatherDisplay:10.37,2013-10-11 09:10:00,
2013-10-11 11:20:00,70.0,66.9,29.91,SSE,154,6.0,17.0,90,0.00,CLR,SKC,0.00,WeatherDisplay:10.37,2013-10-11 09:20:00,
2013-10-11 11:30:00,69.9,66.8,29.92,SSE,153,7.0,15.0,90,0.00,CLR,SKC,0.00,WeatherDisplay:10.37,2013-10-11 09:30:00,
2013-10-11 11:40:00,70.2,66.8,29.91,SSE,168,6.0,14.0,89,0.00,CLR,SKC,0.00,WeatherDisplay:10.37,2013-10-11 09:40:00,
2013-10-11 11:50:00,70.4,67.0,29.91,SSE,163,7.0,16.0,89,0.00,CLR,SKC,0.00,WeatherDisplay:10.37,2013-10-11 09:50:00,
2013-10-11 12:00:00,70.6,66.9,29.91,SE,143,5.0,20.0,88,0.00,CLR,SKC,0.00,WeatherDisplay:10.37,2013-10-11 10:00:00,
2013-10-11 12:10:00,70.7,66.9,29.91,SSE,162,7.0,18.0,88,0.00,CLR,SKC,0.00,WeatherDisplay:10.37,2013-10-11 10:10:00,
2013-10-11 12:20:00,70.5,66.8,29.91,SSE,147,7.0,18.0,88,0.00,CLR,SKC,0.00,WeatherDisplay:10.37,2013-10-11 10:20:00,
2013-10-11 12:30:00,70.2,66.8,29.92,SSE,149,7.0,16.0,89,0.00,CLR,SKC,0.00,WeatherDisplay:10.37,2013-10-11 10:30:00,
2013-10-11 12:40:00,70.2,66.5,29.91,SSE,159,8.0,21.0,88,0.00,CLR,SKC,0.00,WeatherDisplay:10.37,2013-10-11 10:40:00,
2013-10-11 12:50:00,70.3,66.2,29.91,SSE,153,9.0,21.0,87,0.00,CLR,SKC,0.00,WeatherDisplay:10.37,2013-10-11 10:50:00,
2013-10-11 13:00:00,70.5,66.1,29.91,SSE,158,6.0,16.0,86,0.00,CLR,SKC,0.00,WeatherDisplay:10.37,2013-10-11 11:00:00,
2013-10-11 13:10:00,71.0,66.3,29.90,SSE,162,7.0,17.0,85,0.00,CLR,SKC,0.00,WeatherDisplay:10.37,2013-10-11 11:10:00,
2013-10-11 13:20:00,71.6,66.2,29.90,SSE,159,6.0,15.0,83,0.00,CLR,SKC,0.00,WeatherDisplay:10.37,2013-10-11 11:20:00,
2013-10-11 13:30:00,71.6,66.2,29.90,SSE,160,6.0,15.0,83,0.00,CLR,SKC,0.00,WeatherDisplay:10.37,2013-10-11 11:30:00,
2013-10-11 13:40:00,72.4,66.6,29.89,South,187,8.0,18.0,82,0.00,CLR,SKC,0.00,WeatherDisplay:10.37,2013-10-11 11:40:00,
2013-10-11 13:50:00,72.2,66.4,29.89,SE,143,7.0,20.0,82,0.00,CLR,SKC,0.00,WeatherDisplay:10.37,2013-10-11 11:50:00,
2013-10-11 14:00:00,72.2,66.0,29.89,SSE,147,8.0,18.0,81,0.00,CLR,SKC,0.00,WeatherDisplay:10.37,2013-10-11 12:00:00,
2013-10-11 14:10:00,72.2,66.1,29.90,SSE,156,9.0,22.0,81,0.00,CLR,SKC,0.00,WeatherDisplay:10.37,2013-10-11 12:10:00,
2013-10-11 14:20:00,71.9,65.8,29.90,SSE,155,9.0,20.0,81,0.00,CLR,SKC,0.00,WeatherDisplay:10.37,2013-10-11 12:20:00,
2013-10-11 14:30:00,72.3,65.8,29.89,SSE,148,10.0,20.0,80,0.00,CLR,SKC,0.00,WeatherDisplay:10.37,2013-10-11 12:30:00,
2013-10-11 14:40:00,72.7,65.8,29.89,SSE,161,8.0,23.0,79,0.00,CLR,SKC,0.00,WeatherDisplay:10.37,2013-10-11 12:40:00,
2013-10-11 14:50:00,72.9,66.4,29.89,SE,145,8.0,20.0,80,0.00,CLR,SKC,0.00,WeatherDisplay:10.37,2013-10-11 12:50:00,
2013-10-11 15:00:00,72.9,66.0,29.89,SE,143,10.0,18.0,79,0.00,CLR,SKC,0.00,WeatherDisplay:10.37,2013-10-11 13:00:00,
2013-10-11 15:10:00,73.0,66.5,29.89,SSE,158,8.0,21.0,80,0.00,CLR,SKC,0.00,WeatherDisplay:10.37,2013-10-11 13:10:00,
2013-10-11 15:20:00,73.0,66.5,29.89,South,171,9.0,17.0,80,0.00,CLR,SKC,0.00,WeatherDisplay:10.37,2013-10-11 13:20:00,
2013-10-11 15:30:00,73.3,66.8,29.89,SSE,159,7.0,17.0,80,0.00,CLR,SKC,0.00,WeatherDisplay:10.37,2013-10-11 13:30:00,
2013-10-11 15:40:00,72.6,66.4,29.90,South,171,8.0,21.0,81,0.00,CLR,SKC,0.00,WeatherDisplay:10.37,2013-10-11 13:40:00,
2013-10-11 15:50:00,72.7,66.9,29.90,SE,138,5.0,17.0,82,0.00,CLR,SKC,0.00,WeatherDisplay:10.37,2013-10-11 13:50:00,
2013-10-11 16:00:00,72.9,67.1,29.91,SSE,150,6.0,15.0,82,0.00,CLR,SKC,0.00,WeatherDisplay:10.37,2013-10-11 14:00:00,
2013-10-11 16:10:00,73.2,66.7,29.91,South,170,7.0,13.0,80,0.00,CLR,SKC,0.00,WeatherDisplay:10.37,2013-10-11 14:10:00,
2013-10-11 16:20:00,73.6,66.3,29.91,SSE,159,3.0,13.0,78,0.00,CLR,SKC,0.00,WeatherDisplay:10.37,2013-10-11 14:20:00,
2013-10-11 16:30:00,73.9,66.6,29.91,SSE,159,6.0,12.0,78,0.00,CLR,SKC,0.00,WeatherDisplay:10.37,2013-10-11 14:30:00,
2013-10-11 16:40:00,73.5,66.6,29.91,SSE,160,5.0,14.0,79,0.00,CLR,SKC,0.00,WeatherDisplay:10.37,2013-10-11 14:40:00,
2013-10-11 16:50:00,73.0,66.5,29.91,South,190,6.0,15.0,80,0.00,CLR,SKC,0.00,WeatherDisplay:10.37,2013-10-11 14:50:00,
2013-10-11 17:00:00,72.8,66.6,29.91,South,179,5.0,14.0,81,0.00,CLR,SKC,0.00,WeatherDisplay:10.37,2013-10-11 15:00:00,
2013-10-11 17:10:00,72.2,66.4,29.91,SSE,158,7.0,15.0,82,0.00,CLR,SKC,0.00,WeatherDisplay:10.37,2013-10-11 15:10:00,
2013-10-11 17:20:00,72.2,63.0,29.92,SSE,150,7.0,15.0,73,0.00,CLR,SKC,0.00,WeatherDisplay:10.37,2013-10-11 15:20:00,
2013-10-11 17:30:00,72.1,66.3,29.92,South,172,8.0,13.0,82,0.00,CLR,SKC,0.00,WeatherDisplay:10.37,2013-10-11 15:30:00,
2013-10-11 17:40:00,71.3,65.5,29.92,South,170,8.0,16.0,82,0.00,CLR,SKC,0.00,WeatherDisplay:10.37,2013-10-11 15:40:00,
2013-10-11 17:50:00,70.7,65.2,29.93,SSE,167,8.0,12.0,83,0.00,CLR,SKC,0.00,WeatherDisplay:10.37,2013-10-11 15:50:00,
2013-10-11 18:00:00,70.4,64.9,29.93,SSE,166,1.0,10.0,83,0.00,CLR,SKC,0.00,WeatherDisplay:10.37,2013-10-11 16:00:00,
2013-10-11 18:10:00,70.3,64.9,29.94,SSE,162,6.0,12.0,83,0.00,CLR,SKC,0.00,WeatherDisplay:10.37,2013-10-11 16:10:00,
2013-10-11 18:20:00,70.2,65.8,29.94,South,185,3.0,12.0,86,0.00,CLR,SKC,0.00,WeatherDisplay:10.37,2013-10-11 16:20:00,
2013-10-11 18:30:00,69.8,65.4,29.95,SSE,168,5.0,12.0,86,0.00,CLR,SKC,0.00,WeatherDisplay:10.37,2013-10-11 16:30:00,
2013-10-11 18:40:00,69.6,65.6,29.95,South,181,6.0,13.0,87,0.00,CLR,SKC,0.00,WeatherDisplay:10.37,2013-10-11 16:40:00,
2013-10-11 18:50:00,69.6,65.2,29.96,South,180,5.0,9.0,86,0.00,CLR,SKC,0.00,WeatherDisplay:10.37,2013-10-11 16:50:00,
2013-10-11 19:00:00,69.6,65.5,29.96,South,184,7.0,12.0,87,0.00,CLR,SKC,0.00,WeatherDisplay:10.37,2013-10-11 17:00:00,
2013-10-11 19:10:00,69.5,65.5,29.97,South,169,3.0,10.0,87,0.00,CLR,SKC,0.00,WeatherDisplay:10.37,2013-10-11 17:10:00,
2013-10-11 19:20:00,69.6,65.2,29.97,SSE,162,3.0,9.0,86,0.00,CLR,SKC,0.00,WeatherDisplay:10.37,2013-10-11 17:20:00,
2013-10-11 19:30:00,69.9,64.8,29.97,SE,128,3.0,10.0,84,0.00,CLR,SKC,0.00,WeatherDisplay:10.37,2013-10-11 17:30:00,
2013-10-11 19:40:00,69.8,64.7,29.97,SE,145,1.0,7.0,84,0.00,CLR,SKC,0.00,WeatherDisplay:10.37,2013-10-11 17:40:00,
2013-10-11 19:50:00,69.9,64.8,29.97,SSE,152,2.0,5.0,84,0.00,CLR,SKC,0.00,WeatherDisplay:10.37,2013-10-11 17:50:00,
2013-10-11 20:00:00,69.8,64.7,29.97,SSE,162,3.0,7.0,84,0.00,CLR,SKC,0.00,WeatherDisplay:10.37,2013-10-11 18:00:00,
2013-10-11 20:10:00,69.6,64.6,29.98,South,173,3.0,8.0,84,0.00,CLR,SKC,0.00,WeatherDisplay:10.37,2013-10-11 18:10:00,
2013-10-11 20:20:00,69.7,65.0,29.98,South,176,2.0,12.0,85,0.00,CLR,SKC,0.00,WeatherDisplay:10.37,2013-10-11 18:20:00,
2013-10-11 20:30:00,69.6,65.2,29.98,SSE,158,2.0,8.0,86,0.00,CLR,SKC,0.00,WeatherDisplay:10.37,2013-10-11 18:30:00,
2013-10-11 20:40:00,69.6,65.6,29.99,SSE,155,3.0,7.0,87,0.00,CLR,SKC,0.00,WeatherDisplay:10.37,2013-10-11 18:40:00,
2013-10-11 20:50:00,69.7,65.7,29.99,SSE,153,5.0,8.0,87,0.00,CLR,SKC,0.00,WeatherDisplay:10.37,2013-10-11 18:50:00,
2013-10-11 21:00:00,69.6,65.6,29.99,SSE,156,1.0,7.0,87,0.00,CLR,SKC,0.00,WeatherDisplay:10.37,2013-10-11 19:00:00,
2013-10-11 21:10:00,69.5,65.4,30.00,SSE,159,2.0,7.0,87,0.00,CLR,SKC,0.00,WeatherDisplay:10.37,2013-10-11 19:10:00,
2013-10-11 21:20:00,69.2,65.2,30.00,SE,140,0.0,5.0,87,0.00,CLR,SKC,0.00,WeatherDisplay:10.37,2013-10-11 19:20:00,
2013-10-11 21:30:00,69.0,65.3,30.00,SE,132,0.0,0.0,88,0.00,CLR,SKC,0.00,WeatherDisplay:10.37,2013-10-11 19:30:00,
2013-10-11 21:40:00,69.0,65.3,30.00,SE,132,0.0,0.0,88,0.00,CLR,SKC,0.00,WeatherDisplay:10.37,2013-10-11 19:40:00,
2013-10-11 21:50:00,69.2,65.8,30.00,SSE,151,3.0,7.0,89,0.00,CLR,SKC,0.00,WeatherDisplay:10.37,2013-10-11 19:50:00,
2013-10-11 22:00:00,69.4,66.3,30.00,SSE,154,3.0,7.0,90,0.00,CLR,SKC,0.00,WeatherDisplay:10.37,2013-10-11 20:00:00,
2013-10-11 22:10:00,69.5,66.4,30.01,SSE,154,0.0,5.0,90,0.00,CLR,SKC,0.00,WeatherDisplay:10.37,2013-10-11 20:10:00,
2013-10-11 22:20:00,69.3,66.2,30.01,SSE,154,0.0,5.0,90,0.00,CLR,SKC,0.00,WeatherDisplay:10.37,2013-10-11 20:20:00,
2013-10-11 22:30:00,69.3,66.6,30.02,SSE,157,2.0,7.0,91,0.00,CLR,SKC,0.00,WeatherDisplay:10.37,2013-10-11 20:30:00,
2013-10-11 22:40:00,69.3,66.6,30.02,SSE,167,2.0,7.0,91,0.00,CLR,SKC,0.00,WeatherDisplay:10.37,2013-10-11 20:40:00,
2013-10-11 22:50:00,69.3,66.9,30.02,SSE,165,3.0,9.0,92,0.00,CLR,SKC,0.00,WeatherDisplay:10.37,2013-10-11 20:50:00,
2013-10-11 23:00:00,69.3,66.9,30.02,SSE,153,5.0,8.0,92,0.00,CLR,SKC,0.00,WeatherDisplay:10.37,2013-10-11 21:00:00,
2013-10-11 23:10:00,69.4,67.0,30.02,SSE,164,3.0,9.0,92,0.00,CLR,SKC,0.00,WeatherDisplay:10.37,2013-10-11 21:10:00,
2013-10-11 23:20:00,69.5,67.1,30.02,South,171,3.0,8.0,92,0.00,CLR,SKC,0.00,WeatherDisplay:10.37,2013-10-11 21:20:00,
2013-10-11 23:30:00,69.6,67.5,30.02,South,171,5.0,13.0,93,0.00,CLR,SKC,0.00,WeatherDisplay:10.37,2013-10-11 21:30:00,
2013-10-11 23:40:00,69.7,67.6,30.02,South,172,5.0,11.0,93,0.00,CLR,SKC,0.00,WeatherDisplay:10.37,2013-10-11 21:40:00,
2013-10-11 23:50:00,69.6,67.5,30.02,South,182,3.0,12.0,93,0.00,CLR,SKC,0.00,WeatherDisplay:10.37,2013-10-11 21:50:00,